Weather History for PAGY - February, 2014

Change the Weather History Date:

Monday, February 10, 2014

  Actual Average Record
Temperature  
Mean Temperature 10 °F -  
Max Temperature 12 °F 33 °F 46 °F (2004)
Min Temperature 8 °F 25 °F 1 °F (1985)
Degree Days  
Heating Degree Days 55    
Moisture  
Dew Point -12 °F    
Average Humidity 37    
Maximum Humidity 40    
Minimum Humidity 32    
Precipitation  
Precipitation 0.00 in - - ()
Sea Level Pressure  
Sea Level Pressure 30.17 in    
Wind  
Wind Speed 23 mph (NNE)    
Max Wind Speed 28 mph    
Max Gust Speed 41 mph    
Visibility 10 miles    
Events      
Averages and records for this station are not official NWS values.
T = Trace of Precipitation, MM = Missing Value Source: NWS Daily Summary

Daily Weather History Graph

Daily Weather History Graph

Search for Another Location

Airport or City:

Trip Planner

Search our weather history database for the weather conditions in past years. The results will help you decide how hot, cold, wet, or windy it might be!

Date:

Astronomy

Feb. 10, 2014 Rise Set
Actual Time 7:49 AM AKST 4:42 PM AKST
Civil Twilight 7:05 AM AKST 5:26 PM AKST
Nautical Twilight 6:17 AM AKST 6:14 PM AKST
Astronomical Twilight 5:30 AM AKST 7:02 PM AKST
Moon 12:51 PM AKST (2/10) 5:16 AM AKST (2/10)
Length of Visible Light 10h 20m
Length of Day
8h 52m
Waxing Gibbous, 85% of the Moon is Illuminated
Feb 10
Waxing Gibbous
Feb 14
Full
Feb 22
Last Quarter
Feb 28
New
Mar 8
First Quarter

Hourly Weather History & Observations

Time (AKST) Temp. Windchill Dew Point Humidity Pressure Visibility Wind Dir Wind Speed Gust Speed Precip Events Conditions
12:53 AM 10.9 °F -8.3 °F -9.9 °F 39% 30.25 in 10.0 mi NNE 21.9 mph 34.5 mph N/A   Clear
1:53 AM 10.9 °F -9.2 °F -9.9 °F 39% 30.26 in 10.0 mi NNE 24.2 mph 33.4 mph N/A   Clear
3:53 AM 10.0 °F -9.5 °F -11.0 °F 38% 30.25 in 10.0 mi NNE 21.9 mph 38.0 mph N/A   Clear
4:53 AM 9.0 °F -11.0 °F -11.0 °F 40% 30.24 in 10.0 mi NNE 21.9 mph 29.9 mph N/A   Clear
5:53 AM 9.0 °F -9.0 °F -11.9 °F 38% 30.23 in 10.0 mi NNE 17.3 mph 32.2 mph N/A   Clear
6:53 AM 8.1 °F -12.2 °F -11.9 °F 40% 30.22 in 10.0 mi NNE 21.9 mph 32.2 mph N/A   Clear
7:53 AM 8.1 °F -11.7 °F -13.0 °F 38% 30.22 in 10.0 mi NNE 20.7 mph 28.8 mph N/A   Clear
8:53 AM 8.1 °F -13.4 °F -13.0 °F 38% 30.21 in 10.0 mi NNE 25.3 mph 36.8 mph N/A   Clear
9:53 AM 8.1 °F -14.2 °F -13.0 °F 38% 30.21 in 10.0 mi NNE 27.6 mph 41.4 mph N/A   Clear
10:53 AM 9.0 °F -13.0 °F -11.9 °F 38% 30.20 in 10.0 mi NNE 27.6 mph 35.7 mph N/A   Clear
11:53 AM 10.9 °F -8.8 °F -11.9 °F 35% 30.18 in 10.0 mi NNE 23.0 mph 36.8 mph N/A   Clear
12:53 PM 12.0 °F -8.5 °F -13.0 °F 32% 30.16 in 10.0 mi NE 26.5 mph 38.0 mph N/A   Clear
1:53 PM 12.0 °F -6.5 °F -13.0 °F 32% 30.15 in 10.0 mi NE 20.7 mph 35.7 mph N/A   Clear
2:53 PM 12.0 °F -8.1 °F -13.0 °F 32% 30.13 in 10.0 mi NNE 25.3 mph 33.4 mph N/A   Clear
3:53 PM 10.9 °F -8.3 °F -13.0 °F 33% 30.12 in 10.0 mi NNE 21.9 mph 28.8 mph N/A   Clear
4:53 PM 10.9 °F -7.5 °F -11.9 °F 35% 30.12 in 10.0 mi NNE 19.6 mph 34.5 mph N/A   Clear
5:53 PM 10.0 °F -8.6 °F -11.9 °F 37% 30.11 in 10.0 mi NNE 19.6 mph 32.2 mph N/A   Clear
6:53 PM 10.0 °F -10.0 °F -11.9 °F 37% 30.11 in 10.0 mi NNE 23.0 mph 33.4 mph N/A   Clear
7:53 PM 9.0 °F -10.0 °F -11.0 °F 40% 30.11 in 10.0 mi NNE 19.6 mph 26.5 mph N/A   Clear
8:53 PM 9.0 °F -11.0 °F -11.9 °F 38% 30.10 in 10.0 mi NNE 21.9 mph 32.2 mph N/A   Clear
9:53 PM 9.0 °F -11.0 °F -11.9 °F 38% 30.11 in 10.0 mi NNE 21.9 mph 33.4 mph N/A   Clear
10:53 PM 8.1 °F -12.6 °F -11.9 °F 40% 30.11 in 10.0 mi NNE 23.0 mph 31.1 mph N/A   Clear
11:53 PM 8.1 °F -13.4 °F -11.9 °F 40% 30.10 in 10.0 mi NNE 25.3 mph 36.8 mph N/A   Clear